Skip Page Navigation
NASA JPL Caltech
NASA Logo - Jet Propulsion Laboratory + View the NASA Portal
+ Near-Earth Object (NEO) Program
Search JPL
JPL Home Earth Solar System Stars & Galaxies Technology
JPL Solar System Dynamics
BODIES ORBITS EPHEMERIDES TOOLS PHYSICAL DATA DISCOVERY FAQ SITE MAP
JPL Small-Body Database Browser
Search: [ help ]  
60622 Pritchet (2000 FK8)
Classification: Main-belt Asteroid          SPK-ID: 2060622
Ephemeris | Orbit Diagram | Orbital Elements | Physical Parameters | Discovery Circumstances ]

[ hide orbit diagram ]
Orbit Diagram
Note: Make sure you have Java enabled on your browser to see the applet. This applet is provided as a 3D orbit visualization tool. The applet was implemented using 2-body methods, and hence should not be used for determining accurate long-term trajectories (over several years or decades) or planetary encounter circumstances. For accurate long-term ephemerides, please instead use our Horizons system.
Orbit Viewer

Additional Notes: the orbits shown in the applet are color coded. The planets are white lines, and the asteroid/comet is a blue line. The bright white line indicates the portion of the orbit that is above the ecliptic plane, and the darker portion is below the ecliptic plane. Likewise for the asteroid/comet orbit, the light blue indicates the portion above the ecliptic plane, and the dark blue the portion below the ecliptic plane.

Orbit Viewer applet originally written and kindly provided by Osamu Ajiki (AstroArts), and further modified by Ron Baalke (JPL).


Orbital Elements at Epoch 2456400.5 (2013-Apr-18.0) TDB
Reference: JPL 1 (heliocentric ecliptic J2000)
 Element Value Uncertainty (1-sigma)   Units 
e .06306978303162503 1.0683e-07  
a 2.254342578547833 2.8523e-08 AU
q 2.112161681239868 2.4329e-07 AU
i 3.70805456927366 1.1446e-05 deg
node 115.326740986567 0.0001705 deg
peri 81.7077935485992 0.00019159 deg
M 299.0791692875356 9.0055e-05 deg
tp 2456609.714419388809
(2013-Nov-13.21441939)
0.00031025 JED
period 1236.312606035449
3.38
2.3464e-05
6.424e-08
d
yr
n .2911884892563148 5.5265e-09 deg/d
Q 2.396523475855799 3.0322e-08 AU
  Orbit Determination Parameters
   # obs. used (total)      205  
   data-arc span      7863 days (21.53 yr)  
   first obs. used      1991-10-01  
   last obs. used      2013-04-11  
   planetary ephem.      DE405  
   SB-pert. ephem.      SB405-CPV-2  
   condition code      0  
   fit RMS      .55836  
   data source      ORB  
   producer      Otto Matic  
   solution date      2013-Apr-29 16:42:09  

Additional Information
 Earth MOID = 1.11403 AU 
 T_jup = 3.619 
[ show covariance matrix ]

Ephemeris | Orbit Diagram | Orbital Elements | Physical Parameters | Discovery Circumstances ]

Physical Parameter Table
Parameter Symbol Value Units Sigma Reference Notes
absolute magnitude H 16.334 mag .54979 1 autocmod 2.5c

60622 Pritchet           Discovered 2000 Mar. 30 by D. D. Balam at the Dominion Astrophysical Observatory, Victoria.
Christopher J. Pritchet (b. 1950) is a professor of physics and astronomy at the University of Victoria and a leading authority in the field of observational cosmology, supernovae, galaxy formation and evolution.
NOTE: some special characters may not display properly (any characters within {} are an attempt to place the proper accent above a character)
Reference: 20040928/MPCPages.arcLast Updated: 2004-09-28
Ephemeris | Orbit Diagram | Orbital Elements | Physical Parameters | Discovery Circumstances ]
ABOUT SSD CREDITS/AWARDS PRIVACY/COPYRIGHT GLOSSARY LINKS
FirstGov 2013-May-26 05:39 UT
(server date/time)  
NASA Home Page
Site Manager:   Donald K. Yeomans
Webmaster  Alan B. Chamberlin